Home   Weather   Ansbach   Past weeks

Flag for Germany Past Weather in Ansbach, Bavaria, Germany — Yesterday and Last 2 Weeks

39 °F

Passing clouds.

Feels Like: 34 °F
Forecast: 38 / 51 °F
Wind: 7 mph from Southwest

Location: Ansbach / Katterbach

Current Time: Oct 22, 2016 at 7:22:44 AM

Latest Report: Oct 22, 2016 at 6:58 AM

Visibility: N/A

Pressure: 30.01 "Hg

Humidity: 100%

Dew Point: 39 °F

Location of AnsbachLocation

Past Weather in Ansbach — Graph


Ansbach Temperature Yesterday

Maximum temperature yesterday: 45 °F (at 2:59 PM)
Minimum temperature yesterday: 38 °F (at 7:58 AM)
Average temperature yesterday: 40 °F

High & Low Weather Summary for the Past Weeks

High64 °F (Oct 16, 3:58 PM)100% (Oct 7, 5:58 AM)30.32 "Hg (Oct 7, 5:58 AM)
Low34 °F (Oct 10, 6:58 AM)48% (Oct 10, 3:58 PM)29.74 "Hg (Oct 14, 8:58 PM)
Average45 °F90%30.11 "Hg
* Reported Oct 7 5:58 AM — Oct 22 5:58 AM, Ansbach, Weather by CustomWeather, © 2016

Note: Actual official high and low records may vary slightly from our data, if they occured in-between our weather recording intervals... More about our weather records


Ansbach Weather History for the Previous 24 Hours

Scroll right to see more
Time TempWeatherWind HumidityBarometerVisibility
5:58 AM
Sat, Oct 22
39 °FPartly cloudy.5 mph98%30.01 "HgN/A
4:58 AM38 °FPassing clouds.5 mph99%30.01 "HgN/A
3:58 AM39 °FFog.7 mph100%30.01 "Hg5 mi
2:58 AM39 °FFog.5 mph99%30.02 "Hg6 mi
1:58 AM39 °FFog.3 mph99%30.04 "Hg6 mi
12:58 AM39 °FPartly cloudy.5 mph93%30.04 "HgN/A
11:58 PM
Fri, Oct 21
39 °FFog.No wind100%30.05 "Hg6 mi
10:58 PM39 °FFog.5 mph100%30.06 "Hg5 mi
9:58 PM40 °FPassing clouds.No wind100%30.06 "HgN/A
8:58 PM39 °FOvercast.6 mph99%30.06 "HgN/A
7:58 PM39 °FPassing clouds.5 mph100%30.06 "HgN/A
6:58 PM38 °FPassing clouds.5 mph99%30.06 "HgN/A
6:00 PM41 °FPartly sunny.5 mph93%29.96 "HgN/A
5:58 PM41 °FBroken clouds.6 mph93%30.04 "HgN/A
5:00 PM41 °FRain. Fog.8 mph93%29.96 "Hg4 mi
4:58 PM41 °FRain. Fog.10 mph100%30.04 "Hg4 mi
3:58 PM43 °FPartly sunny.6 mph93%30.03 "HgN/A
2:59 PM45 °FLight rain. Partly sunny.12 mph81%29.95 "HgN/A
1:58 PM41 °FMostly cloudy.No wind96%30.03 "HgN/A
1:04 PM43 °FBroken clouds.7 mph87%29.95 "HgN/A
12:03 PM43 °FMostly cloudy.8 mph93%29.95 "HgN/A
11:58 AM42 °FMore clouds than sun.7 mph96%30.02 "HgN/A
11:01 AM41 °FMore clouds than sun.6 mph100%29.94 "HgN/A
9:58 AM39 °FMostly cloudy.8 mph100%30.01 "HgN/A
9:46 AM39 °FMostly cloudy.7 mph100%29.93 "HgN/A
8:59 AM39 °FLow clouds.7 mph100%29.93 "HgN/A
8:01 AM39 °FMore clouds than sun.6 mph93%29.91 "HgN/A
7:58 AM38 °FMostly cloudy.7 mph99%29.99 "HgN/A
Weather by CustomWeather, © 2016

See weather overviewHow to use our weather pages